YUBILEINY (RS-30)

Last updated on Thu Nov 21 2024 00:03:02 GMT+0000 (Coordinated Universal Time)

1 32953U 08025A 24325.52534366 .00000018 00000+0 59174-4 0 9995 2 32953 82.5044 352.2471 0020572 122.7172 237.5895 12.43153436748414
UTC large
Height (km)
Speed (km/s)
/
Latitude / Longitude
Inclination (degrees)
Orbital Period (minutes)
Azimuth
Elevation
Range (km)
Doppler Factor

Next 0 passes for location: London (51.5072 / 0.1276)

Sorry there are no passes over London.